Find Starlink 5799

NORAD ID: 56002 Int'l Des: 2023-042 Owner: SPXS Country: US Constellation: starlink operational
LEOCIRCULAR

实时位置

正在加载3D地球...

关于 Starlink 5799

正在加载描述...

即将过境

Passes for default location (London). Set your location on the main map for personalized predictions.

高度历史

Loading altitude history...

两行轨道根数

1 56002U 23042S 26124.94085125 .00004914 00000-0 18803-3 0 9994
2 56002 43.0005 101.8038 0000530 225.2014 134.8795 15.27564485171476
Epoch: May 4, 2026 • Age: 16 hours

当前状态

高度 485.2 km
速度 7.62 km/s
星下点 -11.35°S, 9.29°E
发射日期 Mar 24, 2023
运行时间 3.1 years
类型 internet

技术详情

分类 Payload
质量 305.00 kg
干质量 290.00 kg
总质量 305.00 kg
长度 0.20 m
直径 2.80 m
跨度 9.00 m
形状 Box + pan
制造商 SPXS
平台类型 Starlink
阶段状态 In Orbit
所有者/国家 SPXS/US

Most Searched